Погода в Балхаше

Погода в Балхаше : погода сейчас, прогноз погоды и архив. Всё, что Вы хотите узнать о погоде в Балхаше!

Хотите узнать прогноз погоды в Балхаше? Тогда Вам сюда: Погода в Балхаше

Поиск расширенной информации на нашем сайте:

Полезная информация:

Другие новости

Новости СМИ2

Главная страница сайта

Новости сайта

03.07.2017

Напоминаем, что на нашем специализированном сайте Метеоцентр.Азия вы можете получить высокодетализированные автоматические прогнозы погоды по пунктам России, СНГ и мира в авиационном формате (включающие направление и скорость ветра, видимость, явления погоды, количество и форму облачности, нижнюю и верхнюю границу облачности).

Рекомендуем:

Погода в Балхаше - сегодня

Время (UTC), дата Ветер
(°,м/с) 
Видим.   Явления Облачность Т
(°С)
Тd
(°С)
f(%) Тe
(°С)
Pmin
(гПа)
dP
(гПа)
Po
(мм)
O2
(г/м3)
Тmin Tmax R s Состояние
почвы
03 16.07.19 090 (В) 20000 м    ясно 
+27.1 +6.5 27 +27  1004.8  0.9  724  264           
06 16.07.19 190 (Ю) 20000 м    ясно 
+26.9 +15.8 51 +38  1004.3  -0.4  724  262  +20.5         
09 16.07.19 220 (ЮЗ) 20000 м    ясно 
+29.1 +14.9 42 +39  1003.4  -0.6  724  260           
12 16.07.19 240 (ЮЗ) 20000 м    ясно 
+29.7 +15.1 41 +40  1002.7  -0.6  723  260           
15 16.07.19 260 (З) 10 км    ясно 
+27.2 +15.2 48 +37  1003.1  0.1  723  262    +30.2       
18 16.07.19 330 (СЗ) 10 км    ясно 
+25.9 +10.6 38 +29  1003.2  -0.1  723  264    +30.2       
21 16.07.19 050 (СВ) 10 км    ясно 
+22.9 +12.8 53 +29  1003.7  0.1  723  266           
00 17.07.19 070 (В) 20000 м    ясно 
+21.4 +9 45 +22  1005  724  269           
03 17.07.19 110 (В) 20000 м    ясно 
+28.6 +10.8 33 +32  1005.2  1.1  725  262           
06 17.07.19 200 (Ю) 20000 м    ясно 
+28 +19 58 +46  1005  -0.1  725  260  +21.3         
09 17.07.19 210 (ЮЗ) 20000 м    1/1 1000 м 
[Cu hum]
+30.5 +16.3 42 +43  1003.4  -1  724  259           
12 17.07.19 240 (ЮЗ) 20000 м    ясно 
+30.6 +17 44 +44  1002.6  -1  723  258           
15 17.07.19 240 (ЮЗ) 10 км    3/3 1000 м 
[Cu hum]
+28.8 +17.1 49 +42  1002.9  723  260    +30.8       
18 17.07.19 330 (СЗ) 10 км    4/4 1000 м 
[Cu hum]
+27.8 +14.2 43 +36  1002.9  -0.1  723  262    +30.8       
21 17.07.19 310 (СЗ) 10 км    4/4 1000 м 
[Cu hum]
+27.3 +3.8 22 +27  1003.3  0.2  723  264           
00 18.07.19 070 (В) 10 км    6/3 1000 м 
[Cu hum]
+23.8 +11.6 46 +28  1004.1  0.4  724  266           
03 18.07.19 050 (СВ) 20000 м    4/4 1000 м 
[Sc diur, vesp]
+27.8 +10.1 33 +30  1004.7  724  263           
06 18.07.19 060 (СВ) 20000 м    6/4 1000 м верхняя 
[Cu hum|Ci fib]
+34.5 +8.5 20 +35  1003.6  -0.2  724  258  +22.8         
09 18.07.19 220 (ЮЗ) 20000 м    ясно 
+32 +17.9 43 +47  1002.9  -0.9  724  257           
12 18.07.19 230 (ЮЗ) 10 км    8/3 1000 м средняя, верхняя 
[Cu med, cong|Ac trans|Ci fib]
+32 +16.8 40 +45  1002  -0.8  723  257           
15 18.07.19 290 (З) 10 км    9/4 1000 м средняя, верхняя 
[Sc diur, vesp|Ac trans|Ci sp]
+30.4 +14.1 37 +38  1002.8  0.5  723  259    +37.2       
18 18.07.19 070 (В) 10 км    3/3 1000 м 
[Sc]
+30.6 +6.6 22 +31  1003.5  0.6  724  261    +37.2       
21 18.07.19 050 (СВ) 10 км    ясно 
+25.4 +9.7 37 +27  1004.1  724  265           
00 19.07.19 050 (СВ) 10 км  дым  4/0 средняя 
[Ac cast]
+22.8 +10.5 46 +26  1005.6  1.1  717  265           
03 19.07.19 110 (В) 20000 м    9/0 средняя 
[Ac cast]
+28.5 +11.1 34 +32  1005.6  0.7  725  263           
Время (UTC), дата Ветер
(°,м/с) 
Видим.   Явления Облачность Т
(°С)
Тd
(°С)
f(%) Тe
(°С)
Pmin
(гПа)
dP
(гПа)
Po
(мм)
O2
(г/м3)
Тmin Tmax R s Состояние
почвы

Для получения пояснительной информации подведите курсор к названию столбца.

ПОГОДА в Балхаше - архив

Всё, что Вы хотите узнать о погоде в Балхаше - удобно и подробно!

Выберите нужную дату (начиная с 1 января 2018* года) и нажмите кнопку "Найти".
Будут отображены архивные сводки погоды по пункту Балхаш, начиная с указанной даты.


Отображать данные в формате CSV (для использования в таблицах Excel)


Внимание! Наш архив погоды предназначен исключительно для личного некоммерческого использования в познавательных целях. Если Вам необходимы официальные справки о состоянии погоды (для производственных, юридических, коммерческих и т.п. целей), обращайтесь в органы Росгидромета.

*Примечание: данная дата относится к архиву по метеостанциям СССР (Россия, СНГ, Балтия).
Архив по метеостанциям Зарубежной Европы и Азии (кроме Китая) хранится 10 дней, по другим регионам земного шара (Китай, Африка, Америка, Австралия, Океания) - 1 день.

Балхаш - район местоположения метеостанции


Название, широта, долгота, высота метеостанции:
Балхаш 46.8°ш. 75.1°д. 350 м над ур. моря [Казахстан]

Дополнительная информация

В oтличие oт бoльшинства пoгoдных сайтoв мы публикуем пoдрoбную метеoинфoрмацию в детальнoм прoфессиoнальнoм фoрмате.

Характеристики температуры и влажнoсти вoздуха измеряются на высoте 2 м в тени вдали oт зданий и деревьев.
Скoрoсть ветра измеряется на высoте 10 м (на урoвне рoста челoвека скoрoсть ветра ниже в 1.5-2 раза). Если метеoстанция нахoдится в гoрoде или в лесу, тo скoрoсть ветра занижена на 2-4 м/с пo сравнению с oткрытым местoм. Скoрoсть ветра над акватoриями крупных рек и oзёр, а также на вершинах хoлмoв на 2-5 м/с выше, чем в oбычных услoвиях.
Атмoсфернoе давление в разных тoчках местнoсти мoжет значительнo oтличаться oт давления на метеoстанции, в зависимoсти oт услoвий рельефа (при пoдъёме на 10 м давление пoнижается примернo на 1 мм рт.ст.).